Location: Arboyeti
(42.1122°N, 44.6017°E)
Time: 16:52:05
(UTC+00:00)

Cosmos 2227 Rocket - Pass Details

Date: 19 April 2021
Orbit: 840 x 844 km, 71.0° (Epoch: 07 May)

Event Time Altitude Azimuth Distance (km) Brightness Sun altitude
Exits shadow 17:58:40 38° 174° (S) 1,261 2.7 -22.1°
Maximum altitude 18:00:43 63° 110° (ESE) 942 2.1 -22.4°
Drops below altitude 10° 18:06:18 10° 30° (NNE) 2,469 4.8 -23.2°
Sets 18:08:46 0° 28° (NNE) 3,407 5.5 -23.5°
